www.pogodaiklimat.ru

Погода и климат >> Архив погоды >> Россия >> Якутия >> Юбилейная


АРХИВ ПОГОДЫ в Юбилейной

Время (UTC), дата Ветер
(напр.,м/с)
 
Видим.   Явления Облачность Т
(С)
Тd
(С)
f
(%)
Тe
(С)
Тes
(С)
Комфортность P
(гПа)
Po
(гПа)
Тmin
(С)
Tmax
(С)
R
(мм)
R24
(мм)
S
(см)
09 9.06 В 4 20 км ясно +20.6 +6.1 39 +22 +24 комфорт 1006.2 1003.3 +21.4
12 9.06 ЮВ 5 20 км ясно +16.4 +4.3 45 +16 +16 1005.0 1002.1
15 9.06 ЮВ 4 20 км ясно +15.2 +5.8 53 +14 +14 1004.0 1001.1
18 9.06 Ю 3 20 км ясно +13.6 +7.0 64 +13 +13 1003.2 1000.3
21 9.06 Ю 5 20 км ясно +14.1 +5.9 58 +13 +14 1002.9 1000.0 +13.0
00 10.06 Ю 3 20 км ясно +23.5 +7.3 35 +24 +30 комфорт 1003.8 1001.0
03 10.06 ЮЗ 3 20 км ясно +27.4 +9.4 32 +28 +36 жарко 1004.6 1001.8
06 10.06 ЮВ 4 20 км ясно +28.4 +9.7 31 +28 +34 жарко 1003.9 1001.1
09 10.06 В 5 20 км ясно +28.0 +9.0 30 +28 +29 жарко 1003.3 1000.5 +29.0
12 10.06 Ю 3 20 км ясно +19.2 +7.5 47 +20 +20 1002.9 1000.0
15 10.06 Ю 4 20 км ясно +16.8 +7.2 53 +16 +16 1002.3 999.4
18 10.06 ЮЗ 2 20 км ясно +15.7 +8.7 63 +16 +16 1001.9 999.0
21 10.06 Ю 3 20 км ясно +16.2 +4.0 44 +16 +19 1001.9 999.0 +15.4
00 11.06 СЗ 3 20 км 6/0
[Ci fib]
+21.4 +7.5 41 +22 +28 комфорт 1001.6 998.8
03 11.06 СЗ 3 20 км 8/0
[Ci ing]
+23.8 +8.0 36 +24 +31 комфорт 1001.6 998.8
06 11.06 В 3 20 км 6/0
[Ci fib]
+26.0 +7.7 31 +26 +32 жарко 1000.9 998.1
09 11.06 СВ 4 20 км ясно +23.3 +8.8 40 +25 +27 комфорт 1000.5 997.7 +27.2
12 11.06 Ю 3 20 км ясно +20.1 +6.9 42 +21 +22 комфорт 1000.1 997.3
15 11.06 Ю 3 20 км ясно +17.8 +8.5 54 +18 +18 999.9 997.0
18 11.06 Ю 5 20 км ясно +16.2 +9.3 64 +15 +16 999.5 996.6
21 11.06 Ю 6 20 км ясно +19.3 +9.3 52 +20 +21 998.9 996.1 +16.0
00 12.06 Ю 3 20 км ясно +21.4 +10.2 49 +23 +30 комфорт 999.8 997.0
03 12.06 Ю 2 20 км ясно +25.9 +12.9 45 +28 +38 жарко 1000.7 997.9
06 12.06 ЮЗ 3 20 км ясно +26.7 +10.3 36 +27 +34 жарко 1000.7 997.9
09 12.06 Ю 3 20 км ясно +26.0 +11.7 41 +27 +30 жарко 1000.4 997.6 +27.3
12 12.06 Ю 5 20 км ясно +19.8 +8.3 47 +21 +21 комфорт 1000.4 997.6
15 12.06 Ю 5 20 км ясно +16.9 +8.3 57 +16 +16 1000.2 997.3
18 12.06 Ю 6 20 км ясно +14.5 +8.4 67 +13 +13 1000.0 997.1
21 12.06 Ю 7 20 км ясно +18.2 +9.3 56 +18 +19 1000.0 997.1 +14.2
00 13.06 ЮВ 3 20 км ясно +21.6 +8.3 42 +23 +29 комфорт 1000.8 998.0
03 13.06 СЗ 5 20 км ясно +23.6 +9.5 41 +25 +30 комфорт 1002.1 999.3
06 13.06 СЗ 7
{14}
20 км ясно +10.8 +7.5 80 +7 +9 1006.1 1003.1
09 13.06 З 7
{14}
20 км ясно +8.6 +5.5 81 +4 +5 1009.2 1006.2 +24.0
12 13.06 СЗ 7
{13}
20 км ясно +7.1 +4.3 82 +2 +3 1012.1 1009.1
15 13.06 СЗ 8
{14}
20 км ясно +4.3 +1.8 84 -2 -2 1013.4 1010.4
18 13.06 СЗ 7
{12}
20 км ясно +1.8 -0.4 85 -5 -5 1014.5 1011.4
21 13.06 СЗ 6
{11}
20 км ясно +5.6 +1.0 72 +1 +2 1015.7 1012.7 +1.5
00 14.06 З 3
{12}
20 км 10/0
[Ac trans]
+6.0 +1.8 74 +3 +6 1015.0 1012.0
03 14.06 СЗ 3
{11}
20 км 6/0
[Ci fib]
+8.4 +1.0 60 +6 +14 1014.2 1011.2
06 14.06 СЗ 2 20 км 8/0
[Ci fib]
+9.1 +0.1 53 +8 +14 1014.1 1011.1
09 14.06 С 2 20 км 4/0
[Ci fib]
+10.6 +0.3 49 +10 +12 1014.1 1011.1 +11.0
12 14.06 ЮВ 2 20 км 8/0
[Ci fib]
+6.2 +0.9 69 +4 +5 1014.0 1011.0
15 14.06 ЮВ 2 20 км 6/0
[Ci fib]
+4.2 +1.4 82 +1 +2 1013.6 1010.6
18 14.06 ЮВ 2 20 км 8/0
[Ci ing]
+4.2 +1.4 82 +1 +2 1013.3 1010.3
21 14.06 ЮВ 3 20 км 6/0
[Ci ing]
+6.6 +2.8 77 +4 +6 1013.3 1010.3 +4.2
00 15.06 ЮВ 3 20 км ясно +13.4 +1.9 46 +12 +19 1012.2 1009.3
03 15.06 ЮВ 5 20 км ясно +18.5 +5.1 41 +18 +24 1010.6 1007.7
06 15.06 В 5 20 км ясно +22.0 +6.6 37 +23 +27 комфорт 1009.1 1006.3
09 15.06 В 6 20 км ясно +22.6 +7.7 38 +24 +25 комфорт 1008.0 1005.2 +23.2
12 15.06 ЮВ 3 20 км ясно +18.4 +7.9 50 +19 +19 1007.3 1004.4
15 15.06 Ю 2 20 км ясно +16.6 +9.8 64 +17 +17 1006.9 1004.0
18 15.06 Ю 3 20 км ясно +14.4 +10.0 75 +14 +14 1006.9 1004.0
21 15.06 Ю 5 20 км ясно +16.9 +7.3 53 +16 +18 1006.5 1003.6 +14.1
00 16.06 штиль 0 20 км 3/0
[Ci fib]
+23.0 +10.3 45 +25 +35 комфорт 1007.4 1004.6
03 16.06 штиль 0 20 км 4/0
[Ci ing]
+25.8 +9.0 35 +26 +39 жарко 1008.5 1005.7
06 16.06 В 1 20 км ясно +28.2 +9.6 31 +28 +37 жарко 1008.6 1005.7

 

Местоположение метеостанции Юбилейная (Якутия, Россия): широта 70.77 долгота 136.20 высота над уровнем моря 24 м.

В архиве по умолчанию представлена погода в Юбилейной за последнюю неделю. Архивные данные за месяц целиком и за предыдущие месяцы, начиная с января 2011 года, Вы можете получить, выбрав интересующий диапазон дат из раскрывающегося списка и нажав кнопку "Ввод!".


*Определитесь, кто Вы:
робот инопланетянин человек

Внимание! Время в таблицах - всемирное. Для получения местного времени необходимо прибавить поправку, которая равна 10 ч.

Смотрите также архив погоды в соседних городах и на ближайших метеорологических станциях:

Погода в Усть-Куйге (Якутия, Россия) (89 км)
Погода в Депутатском (Якутия, Россия) (206 км)
Погода в Тикси (Якутия, Россия) (277 км)
Погода на Мысе Быков (Якутия, Россия) (287 км)
Погода на Мысе Кигилях (Якутия, Россия) (310 км)
Погода в Кюсюре (Якутия, Россия) (323 км)
Погода в Батагае (Якутия, Россия) (353 км)
Погода в Верхоянске (Якутия, Россия) (373 км)
Погода на Столб Острове (Якутия, Россия) (392 км)
Погода в Батагай-Алыте (Якутия, Россия) (403 км)

Пояснения к столбцам:

Ветер - указаны скорость ветра в м/с - средняя за 10 мин, порывы в срок и между сроками (в фигурных скобках) и направление, откуда дует ветер: С - северный, СВ - северо-восточный, В - восточный, ЮВ - юго-восточный, Ю - южный, ЮЗ - юго-западный, З - западный, СЗ - северо-западный.
Видимость - горизонтальная дальность видимости в метрах или километрах. При видимости от 1 до 10 км при отсутствии осадков обычно наблюдается дымка, при ухудшении видимости до 1 км и менее - туман. В сухую погоду видимость может ухудшаться дымом, пылью или мглою.
Явления - указаны атмосферные явления, наблюдавшиеся в срок или в последний час перед сроком; фигурными скобками обозначены явления, наблюдавшиеся между сроками (за 1-3 часа до срока); квадратными скобками обозначены град или гололедные отложения с указанием их диаметра в мм.
Облачность - указаны через наклонную черту общая и нижняя облачность в баллах и высота нижней границы облаков в метрах; квадратными скобками обозначены формы облаков: Ci - перистые, Cs - перисто-слоистые, Cc - перисто-кучевые, Ac - высококучевые, As - высокослоистые, Sc - слоисто-кучевые, Ns - слоисто-дождевые, Cu - кучевые, Cb - кучево-дождевые. Подробнее классификацию облаков см. в Атласе облаков (PDF).
T - Температура воздуха - температура, измеренная на высоте 2 м над землей.
Td - Температура точки росы - температура, при понижении до которой содержащийся в воздухе водяной пар достигнет насыщения.
f - Относительная влажность воздуха - влажноcть воздуха, измеренная на высоте 2 м над землей.
Te - Эффективная температура - температура, которую ощущает одетый по сезону человек в тени. Характеристика душности погоды. При расчете учитывается влияние влажности воздуха и скорости ветра на теплоощущения человека.
Tes - Эффективная температура на солнце - температура, которую ощущает человек, с поправкой на солнечный нагрев. Характеристика знойности погоды. Зависит от высоты солнца над горизонтом, облачности и скорости ветра. Ночью, в пасмурную погоду, а также при ветре 12 м/с и более поправка равна нулю.
P - Атмосферное давление - приведенное к уровню моря атмосферное давление.
Po - Атмосферное давление - измеренное на уровне метеостанции атмосферное давление.
Tmin - Минимальная температура - минимум температуры воздуха на высоте 2 м над землей.
Tmax - Максимальная температура - максимум температуры воздуха на высоте 2 м над землей.
R - Количество осадков - Количество выпавших осадков за период времени, мм. При наведении курсора мыши на число - период времени, за который выпало указанное количество осадков.
R24 - Количество осадков - Количество выпавших осадков за 24 часа, мм.
S - Снежный покров - Высота снежного покрова, см. При наведении курсора мыши на число - состояние снежного покрова и степень покрытия местности в баллах.